Temperature
19 19 20 19 19 19 19 19 19 19 19 19 19 19 19 19 19 19 19 19 19 19 19 19 19 19 19 19 19 19 19 19 19 19 19 19 19 19 19 19 18 18 19
19 19 20 19 19 19 19 19 19 19 19 19 19 19 19 19 19 19 19 19 19 19 19 19 19 19 19 19 19 19 19 19 19 19 19 19 19 19 19 19 18 18 19
19 19 20 19 19 19 19 19 19 19 19 19 19 19 19 19 19 19 19 19 19 19 19 19 19 19 19 19 19 19 19 19 19 19 19 18 18 19 19 19 19 19 19
19 19 19 20 19 19 19 19 19 19 19 19 19 19 19 19 19 18 18 18 18 19 19 19 19 19 19 19 19 19 19 19 19 19 18 18 18 19 19 19 19 19 18
19 19 19 20 19 19 19 19 19 19 19 19 19 19 19 19 19 18 18 18 18 18 18 18 18 18 18 18 18 18 19 19 19 18 18 18 18 18 18 18 19 18 18
19 19 19 20 19 19 19 19 19 19 19 19 19 19 19 19 19 18 18 18 18 18 18 18 18 18 18 18 18 18 18 18 18 18 18 18 18 18 18 18 18 18 18
19 19 19 20 19 19 19 19 19 19 19 19 19 19 19 19 19 18 18 18 18 18 18 18 18 18 18 18 18 18 18 18 17 18 17 17 18 18 18 18 18 18 18
19 19 19 20 19 19 19 19 19 19 19 19 19 19 19 19 19 19 18 18 18 18 18 18 18 18 18 18 18 18 18 18 17 17 17 17 18 18 18 18 18 18 18
19 19 19 19 19 19 19 19 19 19 19 19 19 19 19 19 19 19 18 18 18 18 18 18 18 18 18 18 18 18 18 18 17 17 17 17 18 18 18 18 18 18 18
19 19 19 19 19 18 18 19 19 19 19 19 19 19 19 18 18 18 18 18 18 18 18 18 18 18 18 18 18 18 18 18 17 17 18 17 18 18 18 18 18 18 18
19 19 19 19 19 18 18 18 18 19 19 18 18 18 18 18 17 18 17 18 18 18 18 18 18 18 18 18 18 18 18 17 17 18 17 18 18 18 18 18 17 18 18
19 19 19 19 19 18 18 18 18 18 18 18 18 18 18 17 17 17 17 18 18 18 18 18 18 18 18 17 18 18 18 17 18 18 17 18 18 18 18 17 17 17 17
18 18 19 19 19 18 18 18 18 18 18 18 18 17 18 17 17 17 17 17 17 18 17 17 18 17 17 17 18 18 18 18 18 18 17 18 18 18 17 17 17 17 17
18 18 18 18 18 18 18 18 18 18 18 18 18 18 18 18 17 17 17 17 17 17 17 17 17 17 18 18 18 18 18 18 18 18 17 18 17 17 17 17 17 17 17
17 18 18 18 18 18 18 18 18 18 18 18 18 18 17 17 17 17 17 17 17 17 17 17 17 18 18 18 18 18 19 18 18 18 17 17 17 17 17 17 17 17 17
17 17 17 18 18 18 18 18 18 18 18 18 18 18 18 17 17 17 17 17 17 17 17 17 18 18 18 18 18 18 18 18 18 18 17 17 17 17 17 17 17 17 17
16 17 17 17 17 18 18 18 18 18 18 18 18 18 18 17 17 17 17 17 17 17 17 17 18 18 18 18 18 18 18 18 18 18 17 17 17 17 17 17 17 17 17
16 16 17 17 17 17 18 18 18 18 18 18 18 18 18 18 17 17 17 17 17 17 17 17 17 17 18 18 18 18 18 18 18 18 18 17 17 16 17 17 17 17 17
15 15 16 16 17 17 17 18 18 18 18 18 18 18 18 18 17 17 17 17 17 17 17 17 17 17 18 18 18 18 18 18 18 18 18 18 17 17 16 17 17 17 17
14 15 15 15 16 16 17 17 17 17 18 17 17 17 18 18 17 17 17 17 17 17 17 17 17 17 17 17 18 18 18 18 18 18 18 18 18 17 17 16 16 17 17
14 14 14 15 15 15 16 16 17 17 17 17 17 17 17 17 17 17 17 17 17 17 17 17 17 17 17 17 18 18 18 18 18 18 18 18 18 17 17 17 17 16 17
13 13 13 14 14 15 15 16 16 16 17 17 17 17 17 17 17 17 17 17 17 17 17 16 17 17 17 17 17 17 17 18 17 18 18 17 18 17 17 17 17 17 17
13 12 13 13 14 14 14 15 15 15 16 16 16 16 17 17 17 17 17 17 17 16 16 16 16 16 16 16 17 17 17 18 18 18 18 18 17 17 17 17 17 17 17
12 12 12 13 13 13 14 14 14 15 15 15 16 16 16 16 17 17 17 17 16 16 16 16 16 16 16 16 16 17 17 17 17 17 17 17 17 17 17 17 17 17 17
12 12 12 12 13 13 13 13 14 14 14 15 15 16 16 16 16 16 16 16 16 16 16 16 16 16 16 16 16 16 16 16 17 17 17 17 17 17 17 17 17 17 17
12 12 12 12 12 13 13 13 13 14 14 14 14 15 15 15 16 16 16 16 16 16 16 16 16 16 16 16 16 16 16 16 16 16 16 16 16 16 16 16 16 16 16
Wind_Speed
12 14 15 13 12 12 11 11 11 11 11 11 11 10 10 9 8 8 7 6 5 4 4 3 3 3 3 3 3 4 4 4 5 5 5 5 5 5 5 5 4 7 9
14 16 16 14 13 13 12 11 11 11 11 10 10 9 9 8 8 7 7 6 5 4 4 4 4 4 4 3 3 3 4 4 5 5 4 6 6 5 5 4 3 7 7
15 16 16 14 14 13 12 12 11 10 10 10 9 9 8 8 7 7 6 6 5 4 4 4 4 4 4 3 3 4 4 4 4 3 1 4 7 6 5 5 5 6 6
15 15 15 15 14 13 12 11 11 10 10 9 9 8 8 7 7 6 6 5 4 4 3 3 3 3 3 3 3 4 4 4 3 2 1 4 6 8 5 5 5 5 6
13 13 14 14 13 12 11 11 10 10 10 9 9 8 8 7 6 6 6 5 4 4 3 3 3 3 3 3 3 4 4 4 2 2 4 4 6 7 6 5 5 5 6
12 12 14 13 12 12 11 10 10 10 9 9 9 8 8 7 6 5 5 5 4 4 3 3 3 3 3 3 3 3 4 4 4 2 3 3 5 6 5 6 6 6 7
11 10 13 12 11 11 10 10 10 9 9 9 8 8 8 7 6 5 5 4 4 4 3 3 3 3 3 3 3 3 4 3 2 3 3 3 6 5 5 5 6 6 6
9 9 11 12 10 10 9 9 9 9 10 10 9 8 7 7 6 6 5 4 4 3 3 3 3 3 2 3 3 3 3 4 4 3 2 4 6 4 4 4 5 5 6
7 7 7 10 11 11 9 9 9 10 10 10 9 9 8 7 7 6 5 5 4 4 4 3 3 3 2 2 2 3 2 2 2 2 2 4 5 3 4 4 4 5 6
5 6 6 7 8 9 10 11 10 11 11 11 10 10 9 8 8 7 8 7 5 5 4 3 3 3 3 2 2 2 3 6 3 3 2 5 4 2 3 3 4 5 5
2 4 5 6 6 7 7 8 11 11 12 11 11 11 11 11 10 10 8 7 6 5 4 4 3 3 4 5 3 2 5 4 3 1 3 7 2 2 2 3 4 4 4
3 4 5 6 7 8 7 7 9 10 11 12 11 11 11 10 8 7 9 7 7 6 6 5 4 6 9 7 8 7 5 4 4 3 5 5 1 1 2 3 3 4 4
6 6 6 7 8 9 7 8 7 7 8 10 11 11 10 8 8 8 7 10 10 10 9 9 9 9 8 5 5 6 4 4 3 3 6 5 2 2 3 3 3 4 4
9 9 8 8 8 9 9 8 8 8 8 9 10 12 10 7 7 7 7 7 7 7 6 7 7 7 7 8 8 6 6 5 3 2 6 5 2 1 2 3 3 4 4
10 10 10 9 8 9 9 8 9 9 9 11 10 10 11 8 8 8 7 7 8 7 7 7 8 7 7 7 6 6 5 5 4 3 5 6 3 1 1 3 3 4 4
11 11 10 10 9 8 8 9 9 10 10 11 10 11 12 10 9 8 8 7 8 8 7 8 8 7 7 7 7 6 5 5 5 4 3 7 6 3 1 2 3 4 4
11 11 10 9 9 9 9 9 9 10 10 9 10 12 12 12 11 9 8 7 8 9 9 8 8 7 7 7 8 7 6 6 5 5 4 3 6 7 4 2 3 3 4
11 11 10 9 9 9 9 8 7 9 9 9 10 11 12 12 13 10 8 8 8 8 7 7 7 7 8 8 8 7 7 6 7 5 5 6 4 5 8 6 3 3 3
12 11 11 10 10 9 9 8 8 7 8 9 9 9 10 12 13 11 8 8 10 7 7 7 8 8 8 7 7 6 6 6 6 6 7 6 6 5 5 9 6 4 3
12 11 11 10 10 10 8 7 6 6 7 8 8 9 10 10 12 11 8 10 10 7 7 8 8 7 7 6 7 7 6 6 6 6 6 5 5 6 5 5 7 8 7
13 12 12 11 10 9 7 6 6 6 6 7 7 10 11 11 12 11 8 9 8 8 9 9 8 9 8 8 7 6 7 8 8 6 7 6 7 6 6 7 6 6 8
14 14 13 12 11 10 8 7 6 7 7 7 7 9 11 11 11 10 9 8 8 7 8 9 8 7 7 7 6 5 6 7 6 8 7 7 8 7 8 7 8 7 6
15 15 13 13 12 10 9 7 7 6 6 6 7 7 8 11 11 10 9 8 9 9 8 9 9 9 7 8 8 6 5 6 5 7 9 8 8 6 7 8 9 9 8
15 14 14 13 12 11 9 8 8 7 7 7 6 6 7 8 9 11 11 10 10 9 9 9 9 8 8 7 6 7 7 4 4 4 5 7 8 8 8 7 8 9 9
15 13 13 13 12 11 9 8 7 6 6 6 6 6 6 6 7 9 10 10 10 9 9 9 8 9 8 8 6 6 6 5 7 5 4 5 5 6 7 7 7 7 8
15 14 13 12 12 11 9 8 6 6 6 5 5 4 4 3 4 7 8 9 9 8 9 9 9 10 9 9 8 7 6 5 6 5 6 5 4 4 4 4 5 5 7
Wind_Direction
158 154 146 152 145 140 136 133 133 136 140 144 148 152 155 157 158 159 159 157 156 159 162 162 152 145 137 128 117 108 103 98 90 85 86 85 90 101 106 120 151 119 109
153 151 147 152 147 144 140 137 136 136 138 140 143 145 148 150 153 158 161 158 155 155 157 158 153 151 141 136 128 115 105 98 90 82 90 111 100 97 101 106 35 95 116
149 149 152 153 150 147 144 144 143 140 139 138 139 142 143 146 149 151 154 151 149 148 148 150 146 146 140 140 129 117 106 98 91 93 214 115 105 96 100 106 99 113 120
150 152 153 151 153 151 150 149 147 145 143 140 141 142 144 147 149 151 151 151 152 151 146 146 146 142 143 135 127 119 110 104 104 225 144 82 94 90 91 101 105 116 119
151 153 146 154 156 155 153 152 150 150 149 149 149 149 149 148 150 152 155 157 159 156 148 145 148 148 143 133 124 119 119 120 146 232 76 77 83 86 83 88 100 106 111
153 154 149 159 159 159 159 161 159 159 159 158 156 155 155 155 158 160 159 156 153 150 147 140 143 142 135 129 119 119 127 149 207 112 96 92 91 88 82 85 93 103 103
157 158 155 161 163 165 167 169 170 170 170 167 165 161 162 165 165 168 162 154 150 148 146 140 138 135 133 132 130 131 139 194 207 127 112 95 88 90 92 94 94 99 105
158 163 159 163 173 177 180 183 184 181 179 175 173 172 174 175 173 172 168 160 157 151 150 142 140 137 136 141 145 149 157 246 171 138 121 105 91 97 101 99 100 96 100
162 170 178 176 182 189 195 198 198 195 191 188 185 186 187 186 184 184 182 178 173 165 157 148 139 132 128 138 149 156 164 275 232 147 139 102 94 101 108 103 106 106 106
178 188 196 201 202 201 200 201 208 209 205 200 196 196 197 197 195 194 199 180 181 179 170 157 147 141 133 133 140 152 184 227 205 162 134 97 86 103 116 113 114 112 118
218 228 228 227 226 231 230 205 210 215 215 211 206 202 207 213 204 197 195 162 190 192 186 180 175 168 178 164 154 186 224 215 160 163 94 80 78 108 127 130 127 120 120
296 271 260 255 246 240 240 237 233 225 217 220 219 209 215 218 216 221 142 181 205 204 199 197 197 202 223 194 173 203 206 189 184 154 102 91 99 125 131 138 141 138 123
338 320 297 280 267 258 246 245 245 245 238 233 229 223 224 223 214 219 200 190 202 205 207 183 206 213 214 207 209 202 193 208 179 165 114 109 111 124 133 134 141 146 138
359 347 326 301 281 267 255 248 245 245 242 239 235 230 223 225 229 221 219 215 209 207 212 215 222 210 217 210 209 207 188 210 202 181 114 115 123 133 141 136 137 141 139
2 352 340 325 302 284 267 255 250 246 247 245 240 239 230 227 230 225 225 216 222 218 207 217 225 214 220 217 217 219 208 201 207 189 135 131 140 136 149 151 143 138 138
355 348 343 336 324 301 279 261 257 253 248 252 245 239 237 231 233 230 233 222 224 222 221 220 219 213 218 215 216 216 224 211 214 190 176 151 155 155 157 153 154 152 153
348 344 343 337 334 322 302 279 267 260 256 251 247 244 243 237 236 231 233 226 221 218 218 221 218 218 220 215 217 221 218 222 227 204 182 190 166 164 167 165 164 163 163
343 340 338 336 332 326 316 301 284 267 261 256 253 247 245 242 238 236 232 231 225 219 217 212 224 216 217 220 219 211 212 200 225 215 198 192 186 171 164 160 166 170 173
339 334 333 332 328 322 315 302 289 275 263 257 253 250 245 245 241 234 233 234 224 216 219 218 216 222 222 223 225 217 222 207 213 215 217 201 177 189 172 154 173 176 178
339 334 330 328 325 320 311 300 288 274 264 255 246 245 242 242 244 241 235 235 232 218 219 223 219 225 234 225 230 223 221 219 219 221 226 210 208 195 187 174 183 176 179
342 337 332 327 325 323 317 308 297 282 270 257 244 239 236 233 234 234 235 235 229 223 220 222 223 222 225 225 226 227 225 226 229 211 224 224 218 203 203 196 201 185 176
342 338 332 328 324 321 314 305 290 286 277 268 255 241 236 233 228 227 223 226 223 222 221 221 217 223 222 221 222 227 230 221 227 230 223 230 233 206 221 215 203 199 203
344 339 334 329 323 319 315 305 295 281 269 261 255 245 236 231 227 224 221 219 219 215 215 215 214 219 221 222 227 220 227 228 205 215 221 223 229 226 223 226 223 211 203
342 339 336 333 330 326 318 307 299 287 278 269 264 253 241 234 226 219 216 212 213 211 212 212 212 218 219 219 225 233 242 250 224 218 212 224 226 226 231 224 232 232 216
346 345 342 340 337 334 328 319 306 292 285 281 273 263 248 234 225 218 214 211 208 207 208 207 208 217 219 219 214 216 229 240 243 242 232 220 217 223 230 231 229 233 232
353 353 350 349 348 344 340 336 328 311 299 292 282 266 254 231 219 215 213 210 207 203 203 206 206 214 219 219 215 211 210 217 228 233 242 242 236 228 233 235 237 234 232
Height
1547 1549 1549 1552 1554 1555 1556 1557 1558 1559 1560 1561 1562 1563 1563 1564 1565 1565 1565 1566 1566 1566 1567 1567 1567 1567 1566 1566 1566 1566 1565 1564 1564 1563 1562 1562 1561 1561 1560 1560 1560 1561 1560
1547 1549 1550 1553 1555 1556 1557 1558 1559 1560 1561 1562 1563 1563 1564 1565 1565 1566 1566 1566 1567 1567 1567 1567 1567 1567 1567 1567 1567 1566 1566 1566 1565 1564 1564 1563 1563 1562 1562 1561 1561 1562 1561
1548 1550 1551 1554 1556 1557 1558 1559 1561 1561 1562 1563 1563 1564 1565 1565 1566 1566 1566 1567 1567 1567 1567 1568 1568 1568 1568 1567 1567 1567 1567 1567 1566 1566 1565 1566 1565 1563 1563 1563 1562 1562 1562
1550 1552 1553 1555 1556 1558 1559 1560 1561 1562 1563 1563 1564 1564 1565 1565 1566 1566 1567 1567 1567 1567 1568 1568 1568 1568 1568 1568 1568 1568 1568 1567 1567 1567 1568 1567 1567 1565 1564 1564 1563 1563 1563
1552 1554 1554 1556 1557 1559 1560 1561 1562 1563 1563 1564 1564 1565 1565 1565 1566 1566 1567 1567 1567 1567 1568 1568 1568 1568 1568 1568 1568 1568 1568 1568 1568 1568 1568 1567 1567 1566 1566 1565 1565 1564 1564
1553 1555 1555 1557 1558 1560 1561 1562 1562 1563 1564 1564 1564 1565 1565 1566 1566 1566 1567 1567 1567 1567 1568 1568 1568 1568 1568 1568 1569 1569 1569 1569 1569 1569 1569 1569 1568 1567 1567 1566 1566 1566 1565
1555 1556 1557 1557 1559 1560 1561 1562 1563 1563 1564 1564 1565 1565 1565 1566 1566 1566 1567 1567 1567 1567 1567 1567 1568 1568 1568 1568 1569 1569 1569 1569 1570 1570 1570 1569 1569 1568 1568 1567 1567 1567 1566
1557 1558 1558 1558 1559 1560 1561 1562 1563 1563 1564 1564 1564 1565 1565 1565 1566 1566 1566 1566 1566 1567 1567 1567 1567 1567 1568 1568 1569 1569 1569 1569 1571 1571 1570 1570 1569 1569 1569 1568 1568 1568 1567
1558 1559 1560 1560 1560 1560 1561 1562 1562 1563 1563 1564 1564 1564 1564 1565 1565 1565 1565 1566 1566 1566 1566 1566 1567 1567 1568 1568 1569 1569 1570 1570 1571 1572 1572 1571 1569 1569 1569 1569 1569 1569 1568
1559 1560 1560 1561 1561 1562 1561 1561 1562 1562 1562 1563 1563 1563 1564 1564 1564 1564 1565 1565 1565 1565 1566 1566 1566 1567 1567 1568 1569 1569 1570 1570 1572 1572 1572 1571 1569 1569 1569 1569 1569 1569 1569
1559 1560 1561 1561 1561 1561 1561 1561 1560 1560 1561 1561 1561 1562 1562 1563 1564 1564 1564 1563 1564 1564 1565 1565 1566 1566 1567 1568 1569 1569 1570 1572 1572 1572 1572 1570 1569 1569 1569 1569 1570 1570 1570
1559 1559 1560 1560 1560 1560 1560 1560 1559 1560 1559 1559 1560 1561 1561 1562 1563 1564 1562 1562 1563 1563 1564 1564 1565 1566 1567 1569 1569 1570 1571 1572 1572 1572 1571 1570 1569 1569 1569 1569 1570 1570 1570
1558 1558 1558 1558 1558 1558 1558 1558 1558 1558 1557 1558 1558 1559 1560 1561 1561 1561 1562 1561 1562 1562 1564 1564 1565 1567 1569 1570 1570 1571 1571 1572 1572 1572 1571 1569 1569 1569 1569 1569 1570 1570 1571
1556 1556 1556 1556 1555 1555 1555 1555 1555 1555 1555 1555 1556 1557 1557 1558 1559 1560 1561 1562 1562 1562 1563 1564 1566 1567 1568 1569 1570 1571 1571 1571 1572 1572 1570 1569 1569 1568 1569 1569 1569 1570 1571
1555 1554 1553 1552 1552 1552 1552 1552 1552 1551 1552 1552 1553 1553 1554 1555 1556 1558 1559 1559 1560 1561 1562 1562 1564 1566 1567 1568 1569 1569 1570 1571 1571 1571 1570 1568 1568 1568 1568 1568 1569 1569 1570
1554 1552 1550 1549 1549 1548 1548 1548 1548 1548 1548 1548 1549 1550 1551 1552 1553 1554 1556 1557 1558 1559 1560 1561 1562 1564 1565 1566 1567 1568 1569 1569 1570 1570 1570 1568 1567 1567 1567 1568 1568 1569 1569
1553 1550 1548 1547 1545 1544 1543 1543 1543 1543 1544 1544 1545 1546 1548 1549 1550 1551 1553 1554 1555 1556 1558 1559 1561 1562 1563 1564 1565 1566 1567 1568 1568 1569 1568 1568 1568 1567 1567 1567 1567 1568 1569
1551 1548 1546 1544 1542 1541 1539 1538 1538 1538 1539 1540 1541 1542 1543 1544 1546 1547 1549 1551 1552 1554 1555 1556 1558 1559 1561 1562 1564 1565 1565 1566 1567 1567 1568 1568 1568 1568 1567 1566 1567 1567 1568
1549 1546 1543 1541 1539 1537 1536 1534 1534 1533 1534 1534 1535 1537 1538 1540 1541 1543 1545 1547 1549 1551 1552 1554 1556 1557 1559 1560 1562 1563 1564 1564 1565 1566 1567 1567 1567 1567 1567 1566 1566 1567 1567
1547 1544 1541 1538 1536 1534 1532 1530 1530 1529 1529 1529 1530 1531 1533 1535 1536 1538 1540 1542 1545 1547 1548 1550 1552 1554 1556 1558 1559 1560 1561 1562 1563 1564 1565 1565 1566 1567 1567 1567 1566 1566 1566
1545 1542 1538 1536 1533 1530 1528 1527 1525 1525 1524 1525 1525 1526 1528 1530 1531 1533 1535 1538 1540 1542 1544 1547 1549 1550 1552 1555 1556 1557 1558 1559 1560 1561 1562 1563 1564 1565 1565 1566 1567 1567 1566
1543 1539 1536 1533 1530 1527 1525 1523 1521 1520 1520 1520 1521 1521 1522 1524 1526 1527 1530 1532 1535 1538 1540 1542 1545 1547 1549 1551 1553 1554 1555 1557 1556 1558 1559 1560 1562 1563 1564 1565 1565 1565 1566
1541 1536 1533 1529 1526 1524 1521 1519 1517 1516 1515 1515 1515 1516 1517 1519 1520 1522 1524 1527 1530 1533 1535 1537 1540 1543 1545 1547 1549 1551 1552 1552 1553 1555 1556 1557 1558 1560 1561 1562 1563 1564 1564
1539 1534 1531 1527 1523 1520 1518 1516 1514 1512 1511 1511 1511 1511 1512 1514 1515 1517 1519 1521 1524 1526 1529 1532 1535 1537 1540 1542 1544 1546 1549 1549 1551 1551 1553 1554 1555 1556 1558 1559 1560 1561 1562
1537 1533 1528 1525 1521 1518 1515 1513 1510 1509 1508 1507 1507 1507 1508 1509 1510 1512 1514 1516 1519 1521 1524 1527 1529 1532 1535 1537 1539 1542 1543 1545 1547 1548 1549 1550 1551 1552 1554 1555 1556 1557 1559
1536 1532 1527 1523 1520 1516 1513 1510 1508 1506 1505 1505 1504 1504 1505 1506 1507 1508 1510 1512 1514 1516 1519 1522 1525 1527 1530 1532 1535 1537 1539 1541 1542 1544 1545 1547 1548 1549 1550 1551 1552 1553 1554